This demonstration page uses our WeatherBlox Daily Observations layout. Learn more.

Left ArrowRight Arrow

38.89511, -77.03637

Hourly Observations for May 27, 2017

Temp ( °F °C ) Dew Point ( °F °C ) Humidity (%) Winds ( mph kmh ) Pressure ( in mb ) Visibility ( mi km ) Precip ( " mm )
12:52 am 00:52 Mostly Cloudy 63 17.2 57 13.9 81 81 SSW 3 6 29.91 1013 10 16 0.00 0.00
1:52 am 01:52 Mostly Cloudy 64 17.8 57 13.9 78 78 NNE 3 6 29.92 1013 10 16 0.00 0.00
2:52 am 02:52 Mostly Cloudy 64 17.8 58 14.4 81 81 Calm 29.92 1013 10 16 0.00 0.00
3:52 am 03:52 Mostly Cloudy 63 17.2 59 15 87 87 Calm 29.93 1013 10 16 0.00 0.00
4:52 am 04:52 Partly Cloudy 62 16.7 58 14.4 86 86 SSW 3 6 29.93 1014 10 16 0.00 0.00
5:52 am 05:52 Mostly Cloudy 62 16.7 60 15.6 93 93 SSE 5 7 29.90 1013 10 16 0.00 0.00
6:52 am 06:52 Mostly Cloudy 63 17.2 60 15.6 90 90 WSW 3 6 29.91 1013 10 16 0.00 0.00
7:52 am 07:52 Mostly Cloudy 65 18.3 60 15.6 84 84 Calm 29.93 1014 10 16 0.00 0.00
8:52 am 08:52 Mostly Cloudy 68 20 59 15 73 73 SSE 3 6 29.93 1014 10 16 0.00 0.00
9:52 am 09:52 Mostly Cloudy 69 20.6 56 13.3 63 63 Calm 29.93 1013 10 16 0.00 0.00
10:52 am 10:52 Cloudy 71 21.7 56 13.3 59 59 Calm 29.91 1013 10 16 0.00 0.00
11:52 am 11:52 Mostly Cloudy 71 21.7 59 15 66 66 Calm 29.91 1013 10 16 0.00 0.00
12:52 pm 12:52 Mostly Cloudy 73 22.8 60 15.6 64 64 ENE 6 9 29.90 1013 10 16 0.00 0.00
1:52 pm 13:52 Mostly Cloudy 72 22.2 62 16.7 71 71 ENE 7 11 29.89 1012 10 16 0.00 0.00
2:52 pm 14:52 Cloudy 71 21.7 63 17.2 76 76 NE 5 7 29.91 1013 10 16 0.00 0.00
3:03 pm 15:03 Cloudy with Light Rain 71 21.7 63 17.2 76 76 ENE 7 11 29.88 1012 9 14 0.00 0.03
3:52 pm 15:52 Cloudy 72 22.2 63 17.2 73 73 E 5 7 29.88 1012 10 16 0.00 0.03
4:52 pm 16:52 Cloudy with Light Rain 70 21.1 64 17.8 82 82 ENE 7 11 29.89 1012 9 14 0.01 0.25
5:52 pm 17:52 Cloudy 70 21.1 65 18.3 84 84 ENE 5 7 29.88 1012 10 16 0.02 0.51
6:52 pm 18:52 Cloudy 70 21.1 63 17.2 79 79 ENE 6 9 29.88 1012 10 16 0.00 0.00
7:52 pm 19:52 Mostly Cloudy 69 20.6 61 16.1 76 76 E 3 6 29.89 1012 10 16 0.00 0.00
8:52 pm 20:52 Mostly Cloudy 68 20 62 16.7 81 81 E 6 9 29.88 1012 10 16 0.00 0.03
9:52 pm 21:52 Cloudy 68 20 61 16.1 78 78 ENE 5 7 29.92 1013 10 16 0.00 0.00
10:52 pm 22:52 Cloudy 67 19.4 62 16.7 84 84 NE 6 9 29.92 1013 10 16 0.00 0.00
11:52 pm 23:52 Cloudy 66 18.9 62 16.7 87 87 ENE 6 9 29.91 1013 10 16 0.00 0.00

Powered by AerisWeather